Location: Sceptre
(50.8619°N, 109.2670°W)
Time: 00:46:52
(UTC+00:00)

N. Korean satellite - Visible Passes

Search period start: 27 January 2022 00:00
Search period end: 06 February 2022 00:00
Orbit: 447 x 490 km, 97.3° (Epoch: 26 January)

Date Brightness Start Highest point End Pass type
(mag) Time Alt. Az. Time Alt. Az. Time Alt. Az.
27 Jan 9.6 11:34:36 10° NE 11:36:52 16° E 11:39:00 10° SE visible
27 Jan 6.7 13:06:45 10° N 13:10:17 49° WNW 13:13:05 15° SW visible
28 Jan 6.6 12:37:26 10° NNE 12:41:06 77° ESE 12:44:00 15° S visible
28 Jan 8.5 14:12:11 10° NW 14:13:42 12° WNW 14:15:13 10° W visible
29 Jan 9.9 00:50:56 10° WSW 00:52:39 13° W 00:54:23 10° WNW visible
29 Jan 8.2 12:08:23 10° NNE 12:11:46 35° E 12:14:58 11° SSE visible
29 Jan 7.8 13:41:51 10° NNW 13:44:44 22° WNW 13:47:36 10° WSW visible
30 Jan 9.4 11:39:46 10° NE 11:42:18 18° E 11:44:49 10° SE visible
30 Jan 6.9 13:12:10 10° N 13:15:39 43° WNW 13:19:05 10° SW visible
31 Jan 6.5 12:42:45 10° NNE 12:46:26 88° ESE 12:50:03 10° SSW visible
31 Jan 8.6 14:17:57 10° NW 14:18:58 11° WNW 14:19:57 10° WNW visible
01 Feb 10.1 00:56:45 10° WSW 00:58:01 11° W 00:59:17 10° WNW visible
01 Feb 7.9 12:13:37 10° NNE 12:17:05 40° E 12:20:30 10° S visible
01 Feb 7.9 13:47:16 10° NNW 13:49:58 20° WNW 13:52:39 10° WSW visible
02 Feb 9.2 11:44:51 10° NE 11:47:35 20° E 11:50:18 10° SE visible
02 Feb 7.1 13:17:28 10° N 13:20:52 37° WNW 13:24:13 10° SW visible
03 Feb 6.4 12:47:57 10° N 12:51:37 81° WNW 12:55:13 10° SSW visible
04 Feb 10.5 01:02:50 10° W 01:03:14 10° W 01:03:38 10° W visible
04 Feb 7.6 12:18:43 10° NNE 12:22:14 46° E 12:25:42 10° S visible
04 Feb 8.1 13:52:34 10° NNW 13:55:04 18° WNW 13:57:32 10° WSW visible
05 Feb 9.0 11:49:49 10° NE 11:52:43 22° E 11:55:35 10° SE visible
05 Feb 7.2 13:22:37 10° N 13:25:56 33° WNW 13:29:11 10° SW visible
